This demonstration page uses our WeatherBlox Daily Observations layout. Learn more.

Left ArrowRight Arrow

40.92501, -98.34201

Hourly Observations for June 6, 2015

Temp ( °F °C ) Dew Point ( °F °C ) Humidity (%) Winds ( mph kmh ) Pressure ( in mb ) Visibility ( mi km ) Precip ( " mm )
12:41 am 00:41 Mostly Cloudy with Nearby Thunderstorms 71 21.7 64 17.8 79 79 W 18 30 30.03 1017 10 16 0.00 0.00
12:53 am 00:53 Cloudy with Nearby Thunderstorms 72 22.2 64 17.8 76 76 W 10 17 30.06 1018 10 16 0.00 0.03
1:26 am 01:26 Cloudy with Thunderstorms 69 20.6 65 18.3 87 87 SE 16 26 29.97 1015 4 6 0.06 1.52
1:44 am 01:44 Cloudy with Light Rain 68 20 64 18 88 88 SSE 14 22 30.00 1016 8 13 0.00 0.00
1:53 am 01:53 Cloudy with Light Rain 68 20 65 18.3 90 90 SSE 12 19 30.02 1017 7 11 0.09 2.29
2:53 am 02:53 Partly Cloudy 68 20 65 18.3 90 90 SE 7 11 30.00 1016 10 16 0.04 1.02
3:43 am 03:43 Cloudy with Heavy Rain 66 18.9 65 18.3 96 96 S 8 13 30.00 1016 2 3 0.06 1.52
3:46 am 03:46 Cloudy with Strong Thunderstorms 66 18.9 65 18.3 96 96 SSE 13 20 30.00 1016 2 3 0.09 2.29
3:50 am 03:50 Cloudy with Thunderstorms 66 19 64 18 94 94 SE 12 19 29.97 1015 3 5 0.00 0.00
3:53 am 03:53 Cloudy with Thunderstorms 66 18.9 65 18.3 96 96 SE 12 19 30.01 1016 4 6 0.14 3.56
4:11 am 04:11 Cloudy with Nearby Thunderstorms 66 19 64 18 94 94 ESE 12 19 29.94 1014 10 16 0.00 0.00
4:24 am 04:24 Cloudy with Thunderstorms 66 19 64 18 94 94 SE 14 22 29.94 1014 9 14 0.00 0.00
4:44 am 04:44 Cloudy with Nearby Thunderstorms 66 19 64 18 94 94 SE 13 20 29.94 1014 10 16 0.00 0.00
4:53 am 04:53 Cloudy with Light Rain 66 18.9 64 17.8 93 93 SE 12 19 29.97 1015 10 16 0.06 1.52
5:16 am 05:16 Mostly Cloudy with Light Rain 66 18.9 64 17.8 93 93 SE 16 26 29.94 1014 10 16 0.00 0.03
5:53 am 05:53 Mostly Cloudy 65 18.3 63 17.2 93 93 SE 15 24 29.96 1014 10 16 0.00 0.03
6:53 am 06:53 Mostly Sunny 65 18.3 63 17.2 93 93 SE 14 22 29.96 1015 10 16 0.00 0.00
7:53 am 07:53 Mostly Cloudy 67 19.4 63 17.2 87 87 SSE 12 19 29.95 1014 10 16 0.00 0.00
8:53 am 08:53 Sunny 70 21.1 63 17.2 79 79 SSE 18 30 29.95 1014 10 16 0.00 0.00
9:53 am 09:53 Sunny 75 23.9 65 18.3 71 71 SSE 24 39 29.94 1014 10 16 0.00 0.00
10:53 am 10:53 Sunny 76 24.4 66 18.9 72 72 SSE 22 35 29.93 1014 10 16 0.00 0.00
11:53 am 11:53 Sunny 79 26.1 68 20 69 69 SSE 22 35 29.91 1013 10 16 0.00 0.00
12:53 pm 12:53 Mostly Sunny 81 27.2 69 20.6 67 67 S 22 35 29.87 1012 10 16 0.00 0.00
1:53 pm 13:53 Mostly Sunny 82 27.8 70 21.1 67 67 S 20 31 29.86 1011 10 16 0.00 0.00
2:14 pm 14:14 Mostly Cloudy 82 28 72 22 70 70 SSE 18 30 29.77 1008 10 16 0.00 0.00
2:27 pm 14:27 Partly Cloudy 83 28.3 70 21.1 65 65 S 20 31 29.77 1008 10 16 0.00 0.00
2:53 pm 14:53 Partly Cloudy 84 28.9 70 21.1 63 63 S 23 37 29.84 1010 10 16 0.00 0.00
3:53 pm 15:53 Mostly Sunny 86 30 71 21.7 61 61 S 23 37 29.80 1009 10 16 0.00 0.00
4:53 pm 16:53 Sunny 87 30.6 68 20 53 53 S 18 30 29.78 1008 10 16 0.00 0.00
5:53 pm 17:53 Sunny 81 27.2 68 20 65 65 S 15 24 29.78 1008 10 16 0.00 0.00
6:53 pm 18:53 Sunny 80 26.7 68 20 67 67 S 17 28 29.74 1007 10 16 0.00 0.00
7:53 pm 19:53 Sunny 79 26.1 68 20 69 69 S 17 28 29.71 1006 10 16 0.00 0.00
8:53 pm 20:53 Sunny 79 26.1 67 19.4 67 67 S 20 31 29.70 1006 10 16 0.00 0.00
9:53 pm 21:53 Clear 77 25 67 19.4 71 71 S 14 22 29.72 1006 10 16 0.00 0.00
10:53 pm 22:53 Mostly Cloudy 77 25 67 19.4 71 71 SSW 10 17 29.75 1007 10 16 0.00 0.00
11:53 pm 23:53 Partly Cloudy 75 23.9 67 19.4 76 76 SSW 8 13 29.75 1008 10 16 0.00 0.00

Powered by AerisWeather